Terminal Aerodrome Forecast
Issued by NWS

Home | Current Version | Previous Version | Text Only | Print | Product List | Glossary On
Versions: 1 2 3 4 5 6 7 8 9 10 11 12 13
000
FTUS46 KOTX 282320
TAFMWH
TAF
KMWH 282320Z 2900/2924 19011KT P6SM SCT060 BKN150
     FM290600 25007KT P6SM SCT060 BKN150
     FM291000 VRB04KT P6SM SCT070 BKN150
     FM291600 23010KT P6SM SCT070 SCT120
     FM291800 23014G21KT P6SM SCT070 SCT120=

USA.gov is the U.S. government's official web portal to all federal, state and local government web resources and services.